Location: Brookfield Center
(41.2406°N, 80.5579°W)
Time: 20:40:07
(UTC+00:00)

CENTAUR R/B - Pass Details

Date: 18 January 2020
Orbit: 766 x 1422 km, 63.5° (Epoch: 19 February)

Event Time Altitude Azimuth Distance (km) Brightness Sun altitude
Exits shadow 11:25:04 - 329° (NNW) 3,573 5.0 -14.8°
Reaches altitude 10° 11:26:06 10° 332° (NNW) 3,246 4.8 -14.6°
Maximum altitude 11:33:58 54° 49° (NE) 1,614 3.8 -13.1°
Drops below altitude 10° 11:42:30 10° 125° (SE) 3,511 6.7 -11.6°
Sets 11:45:34 0° 130° (SE) 4,488 7.4 -11.1°
